Location: Bennemühlen
(52.5740°N, 9.7135°E)
Time: 07:36:15
(UTC+00:00)

ISS - Pass Details

Date: 24 January 2026
Orbit: 413 x 429 km, 51.6° (Epoch: 11 February)

Event Time Altitude Azimuth Distance (km) Brightness Sun altitude
Rises 16:52:56 0° 273° (W) 2,361 1.5 -9.1°
Reaches altitude 10° 16:55:01 10° 271° (W) 1,500 0.3 -9.4°
Maximum altitude 16:58:22 73° 188° (S) 444 -3.6 -9.9°
Enters shadow 17:01:27 12° 103° (ESE) 1,386 -1.6 -10.4°
